Wind_Speed
6 6 6 6 7 7 8 8 9 9 10 10 10 11 12 13 13 13 13 14 15 15 16 16 18 19 19 19 20 20 21 22 22 22 23 23 24 25
7 7 7 7 7 7 7 8 9 9 10 10 10 11 12 13 13 13 14 14 15 16 16 18 19 19 20 21 21 22 22 23 23 23 23 24 24 24
7 7 7 7 7 8 8 9 9 10 10 10 11 12 12 13 14 15 15 16 16 16 17 18 19 20 21 22 22 23 23 24 24 24 24 24 25 25
8 8 8 8 9 9 9 10 10 11 11 11 11 12 12 13 14 15 16 17 17 18 18 19 20 21 21 22 23 24 24 24 25 25 25 26 26 26
9 9 9 9 9 10 10 10 11 11 11 12 12 13 13 14 15 16 17 18 18 18 19 20 21 22 23 23 24 25 25 25 26 26 27 27 27 27
9 9 9 9 10 10 10 10 11 11 12 12 13 14 15 16 16 17 18 19 19 20 21 21 23 24 24 25 25 26 26 26 27 27 28 28 29 29
9 10 10 10 11 11 11 11 12 12 13 13 14 15 16 17 18 18 19 20 20 21 22 23 24 24 25 25 26 26 26 27 27 28 29 29 29 29
11 11 11 11 12 12 12 13 13 13 14 14 15 16 17 18 19 20 21 21 22 23 23 24 25 25 26 26 26 27 27 28 28 28 29 29 30 30
13 13 13 13 13 13 13 14 15 15 15 16 17 18 19 20 21 21 22 22 23 24 24 25 26 26 26 27 27 27 28 28 28 28 28 29 29 30
14 14 15 14 14 15 15 16 17 17 18 18 19 19 20 21 22 22 23 23 24 25 26 26 27 28 28 27 28 28 29 28 28 28 29 29 29 30
15 15 15 16 16 16 17 18 19 19 20 20 21 22 22 23 23 24 25 26 26 26 27 28 28 28 28 28 29 29 29 29 29 30 30 30 30 31
16 16 17 17 17 18 19 20 21 22 22 23 23 24 24 25 26 26 27 27 27 28 29 30 30 30 29 29 30 30 30 30 31 31 32 32 32 32
18 18 18 19 19 20 21 22 23 23 24 24 25 25 26 27 28 29 29 29 30 30 31 31 31 31 31 31 31 31 31 31 32 32 32 33 33 33
19 19 20 20 21 22 22 23 24 24 25 25 26 27 28 29 30 31 31 32 32 32 32 32 32 33 33 32 32 31 31 31 32 32 32 32 32 32
21 22 22 23 23 24 25 25 26 26 27 27 28 29 29 30 31 32 32 32 33 33 33 33 33 33 33 33 33 32 32 32 32 32 32 32 33 33
23 24 24 25 26 26 27 28 28 29 29 29 30 31 32 32 33 33 33 33 34 34 34 34 33 33 33 33 34 33 32 32 32 32 33 33 34 34
26 26 27 27 28 29 30 30 30 30 31 31 32 32 33 33 34 34 34 35 35 35 35 34 34 34 34 34 34 33 33 32 33 33 33 33 34 35
28 28 29 29 30 31 31 31 31 32 32 33 33 34 34 34 35 35 35 35 35 35 35 34 34 34 34 34 34 34 34 34 34 34 35 35 35 35
30 30 31 31 31 32 33 33 33 33 33 34 34 34 35 35 35 36 36 35 35 35 34 35 35 34 34 34 34 35 35 35 35 35 36 36 36 35
31 32 32 32 33 33 33 34 34 34 35 35 36 35 36 36 36 36 35 35 35 35 35 35 35 35 35 35 35 35 36 36 36 36 36 36 36 36
32 33 33 34 34 34 34 34 35 35 36 37 37 36 37 37 37 37 37 37 36 36 37 37 36 36 36 36 36 36 37 38 37 36 36 36 35 35
33 34 35 35 36 36 36 36 36 36 37 37 37 37 37 37 37 38 38 38 38 38 38 38 37 37 36 36 37 37 37 37 37 36 36 36 35 34
35 35 36 37 37 37 37 37 37 38 38 38 38 38 38 38 39 39 38 38 39 39 39 38 37 36 35 36 36 37 37 37 36 36 35 35 35 34
Wind_Direction
271 271 272 280 283 283 284 285 285 285 281 279 278 280 280 281 281 281 283 283 285 284 285 287 289 290 291 290 288 288 289 289 289 289 289 290 290 288
272 268 269 274 279 281 286 288 288 289 287 283 282 284 283 284 285 285 286 285 285 286 287 289 290 289 291 291 290 288 287 288 288 288 288 289 289 290
275 275 275 280 284 289 289 289 289 290 288 286 288 289 288 287 286 286 288 288 288 290 291 292 292 293 292 292 291 290 289 288 288 288 288 288 289 290
283 282 282 281 284 288 289 289 289 287 284 285 286 287 287 287 288 289 289 290 290 291 292 293 296 297 298 296 293 291 290 288 288 288 289 289 289 289
287 284 283 283 285 285 286 288 290 288 286 285 285 287 288 289 290 291 291 292 291 293 296 298 299 299 298 297 295 293 291 289 288 289 289 289 289 289
287 285 282 283 286 286 286 287 289 288 288 287 287 288 290 292 292 293 293 294 296 298 299 300 300 300 299 297 296 295 293 291 289 289 289 290 289 289
286 284 282 281 284 285 287 288 290 292 293 292 292 291 292 293 294 297 298 298 298 299 299 299 300 301 302 300 299 297 296 295 293 293 292 291 291 290
285 285 283 282 283 284 286 288 290 292 293 295 296 297 297 298 299 299 300 299 298 298 299 299 300 301 301 301 300 299 298 298 297 295 294 293 292 291
284 285 286 283 282 284 286 289 291 291 293 294 297 298 299 299 300 300 300 300 300 300 300 301 301 302 302 302 300 299 299 298 297 296 296 295 294 292
283 284 284 282 283 285 286 288 289 289 290 293 296 297 299 299 299 300 300 300 301 301 301 301 302 303 302 303 302 301 299 298 297 297 298 297 296 294
283 284 284 282 282 285 286 287 288 288 289 291 294 296 297 297 298 300 299 299 300 300 300 301 302 302 302 302 302 302 300 299 298 298 298 297 296 296
283 285 286 286 283 284 286 288 289 289 290 291 292 293 295 296 298 298 299 298 298 299 300 301 302 301 301 301 301 301 299 298 298 298 297 296 296 296
282 283 284 286 284 285 286 289 290 291 291 292 292 293 294 297 298 298 297 297 298 298 299 300 300 299 300 301 301 300 299 299 298 298 298 297 296 296
282 282 282 284 284 286 287 289 291 292 293 293 293 293 294 296 298 298 298 297 297 298 299 299 298 298 299 300 300 300 300 299 299 299 299 298 298 297
281 283 283 284 285 287 288 289 291 292 293 293 294 293 293 295 297 298 298 298 298 299 298 299 299 299 300 300 300 299 299 298 298 298 298 298 299 298
281 284 285 286 286 287 288 289 290 292 293 293 293 293 294 295 297 296 297 297 298 298 298 298 298 299 299 299 299 299 298 298 298 298 298 299 299 299
281 282 284 285 286 286 287 288 289 290 291 292 292 293 295 296 296 295 295 296 298 298 298 297 297 298 298 298 299 299 298 298 298 299 299 300 300 300
283 284 285 286 286 287 288 288 288 289 290 291 292 293 294 296 296 297 297 297 298 299 299 298 298 298 298 298 299 299 299 298 298 298 299 299 300 301
283 285 286 286 287 287 287 288 289 290 291 292 292 293 294 295 296 297 298 298 298 298 299 298 298 297 298 298 299 300 300 299 298 298 298 299 299 300
283 285 286 286 287 288 289 289 289 290 291 292 292 293 294 295 296 297 297 297 298 298 298 298 297 297 297 298 299 300 300 299 298 297 297 298 300 301
282 284 285 285 286 288 289 289 290 290 291 292 292 292 293 294 295 296 296 297 297 297 297 297 296 296 297 298 299 299 299 299 298 298 298 298 299 300
281 283 284 285 286 286 287 288 289 289 290 292 292 292 292 293 294 294 295 296 296 296 297 296 296 297 297 297 298 298 298 298 297 298 298 299 299 300
279 281 283 284 285 286 287 289 289 289 289 290 291 290 291 292 293 294 294 295 295 296 296 295 296 297 297 297 298 299 299 299 299 298 298 298 299 300
Height
5830 5830 5830 5829 5829 5828 5827 5826 5826 5825 5824 5823 5823 5822 5821 5821 5820 5819 5818 5817 5816 5814 5813 5812 5810 5809 5807 5806 5804 5802 5801 5799 5798 5796 5794 5792 5791 5789
5829 5829 5828 5828 5827 5826 5825 5825 5824 5823 5822 5821 5820 5819 5818 5817 5816 5815 5814 5813 5811 5810 5808 5807 5805 5803 5802 5800 5798 5796 5794 5793 5791 5789 5787 5786 5784 5782
5827 5827 5826 5826 5825 5824 5823 5822 5821 5821 5820 5819 5818 5816 5815 5814 5813 5811 5810 5809 5807 5805 5804 5802 5800 5798 5795 5793 5791 5789 5787 5786 5784 5782 5780 5779 5777 5775
5825 5825 5824 5824 5823 5822 5821 5820 5819 5818 5817 5816 5815 5814 5812 5811 5809 5808 5806 5804 5803 5801 5799 5797 5794 5792 5789 5787 5784 5782 5780 5778 5777 5775 5773 5771 5770 5767
5823 5822 5822 5821 5820 5819 5818 5817 5816 5815 5814 5813 5812 5810 5809 5807 5806 5804 5802 5800 5798 5796 5794 5791 5789 5786 5783 5780 5778 5775 5773 5771 5769 5767 5765 5763 5761 5759
5820 5819 5819 5818 5817 5817 5815 5814 5813 5812 5811 5810 5808 5807 5805 5803 5802 5800 5797 5795 5793 5791 5788 5786 5783 5780 5777 5774 5771 5768 5765 5763 5760 5758 5756 5754 5752 5750
5818 5817 5816 5815 5815 5814 5813 5811 5810 5809 5808 5806 5805 5803 5801 5799 5797 5795 5792 5790 5788 5785 5783 5780 5777 5774 5770 5767 5764 5760 5758 5755 5752 5750 5748 5745 5743 5741
5815 5814 5813 5812 5811 5810 5809 5808 5807 5806 5804 5802 5801 5799 5797 5794 5792 5790 5788 5785 5782 5780 5777 5774 5770 5767 5763 5760 5756 5753 5750 5747 5744 5742 5739 5736 5734 5732
5811 5810 5809 5808 5807 5807 5806 5804 5803 5801 5800 5798 5796 5794 5792 5790 5787 5785 5782 5779 5777 5774 5771 5767 5764 5760 5756 5753 5749 5746 5743 5740 5737 5734 5731 5728 5725 5723
5807 5806 5805 5804 5803 5802 5801 5800 5799 5797 5795 5794 5792 5789 5787 5784 5782 5779 5776 5774 5771 5767 5764 5761 5757 5753 5749 5745 5742 5738 5735 5732 5729 5726 5723 5720 5717 5714
5803 5802 5801 5800 5799 5798 5797 5795 5794 5792 5790 5788 5786 5783 5781 5778 5776 5773 5770 5767 5764 5760 5756 5753 5749 5746 5742 5738 5734 5730 5727 5724 5721 5717 5714 5711 5708 5705
5798 5797 5796 5795 5794 5793 5791 5790 5788 5786 5784 5782 5780 5777 5775 5772 5769 5766 5763 5760 5757 5753 5749 5745 5741 5738 5735 5731 5726 5722 5719 5715 5712 5709 5705 5702 5699 5695
5793 5792 5791 5790 5788 5787 5786 5784 5782 5780 5778 5775 5773 5770 5768 5765 5762 5758 5755 5752 5748 5745 5741 5737 5733 5729 5725 5722 5718 5713 5710 5706 5702 5699 5696 5692 5689 5686
5788 5787 5785 5784 5783 5781 5780 5778 5775 5773 5771 5768 5766 5763 5760 5757 5754 5750 5746 5743 5739 5735 5731 5727 5724 5720 5716 5712 5709 5704 5700 5697 5693 5689 5686 5683 5679 5676
5782 5780 5779 5778 5776 5774 5773 5771 5768 5766 5764 5761 5758 5756 5752 5749 5745 5742 5738 5734 5730 5726 5722 5718 5714 5710 5706 5702 5699 5695 5691 5687 5684 5680 5677 5673 5669 5666
5775 5773 5772 5770 5769 5767 5765 5763 5760 5758 5755 5753 5750 5747 5744 5740 5737 5733 5729 5725 5721 5717 5713 5708 5704 5700 5697 5693 5689 5685 5681 5678 5674 5671 5667 5663 5660 5656
5767 5765 5764 5762 5761 5759 5756 5754 5752 5749 5747 5744 5741 5738 5735 5731 5727 5724 5720 5716 5711 5707 5703 5699 5695 5691 5687 5683 5679 5675 5672 5668 5664 5661 5657 5653 5650 5645
5759 5757 5756 5754 5752 5750 5747 5745 5742 5740 5737 5734 5731 5728 5725 5721 5717 5714 5709 5705 5701 5697 5693 5689 5685 5681 5678 5674 5670 5665 5661 5658 5654 5650 5646 5643 5639 5635
5750 5748 5746 5744 5742 5740 5738 5735 5732 5730 5727 5724 5721 5718 5715 5711 5707 5703 5699 5695 5691 5687 5683 5679 5675 5671 5667 5664 5660 5655 5651 5647 5643 5639 5635 5631 5628 5624
5740 5738 5736 5734 5732 5729 5727 5724 5722 5719 5716 5713 5710 5707 5704 5700 5697 5693 5689 5685 5681 5677 5673 5669 5665 5661 5657 5654 5650 5646 5641 5636 5632 5629 5624 5620 5616 5613
5729 5728 5725 5723 5721 5719 5716 5713 5711 5708 5705 5702 5699 5696 5693 5689 5686 5682 5678 5674 5670 5666 5662 5658 5654 5650 5646 5643 5639 5635 5631 5626 5621 5617 5613 5610 5606 5602
5718 5717 5714 5712 5710 5707 5705 5702 5700 5697 5694 5691 5688 5684 5681 5678 5674 5671 5667 5663 5659 5655 5651 5647 5643 5639 5635 5632 5628 5624 5620 5615 5610 5606 5602 5599 5595 5591
5707 5705 5703 5701 5698 5696 5693 5691 5688 5685 5682 5679 5676 5673 5669 5666 5663 5659 5655 5651 5648 5644 5640 5636 5632 5628 5624 5620 5616 5612 5608 5604 5599 5595 5592 5588 5584 5581